K8FAM-13 Weather Reports


Display with metric or nautical units.
time (UTC)temp
F
wind
direction
speed
MPH
gust
MPH
rain 1hr
in
rain 24hr
in
rain mn
in
humidity
%
barometer
mb
20260504021525 47 194 0.0 0.0 0.00 0.00 0.00 52 1014.9
20260504020025 47 195 0.0 0.0 0.00 0.00 0.00 52 1014.8
20260504014522 48 195 0.0 0.0 0.00 0.00 0.00 49 1014.8
20260504013033 48 211 0.0 0.0 0.00 0.00 0.00 47 1014.7
20260504011520 49 229 0.0 0.0 0.00 0.00 0.00 48 1014.6
20260504010020 50 229 0.0 0.0 0.00 0.00 0.00 47 1014.6
20260504004519 51 229 0.0 0.0 0.00 0.00 0.00 42 1014.6
20260504003034 52 229 0.0 2.0 0.00 0.00 0.00 39 1014.6
20260504001519 53 185 0.0 4.0 0.00 0.00 0.00 41 1014.5
20260504000018 55 264 0.0 8.0 0.00 0.00 0.00 38 1014.5
20260503234516 56 255 1.0 8.0 0.00 0.00 0.00 36 1014.5
20260503233015 56 51 1.0 11.0 0.00 0.00 0.00 33 1014.7
20260503231515 56 275 1.0 7.0 0.00 0.00 0.00 34 1014.7
20260503230017 57 268 1.0 9.0 0.00 0.00 0.00 32 1014.8
20260503224524 57 299 0.0 10.0 0.00 0.00 0.00 32 1014.8
20260503223012 57 244 1.0 13.0 0.00 0.00 0.00 31 1014.9
20260503221512 58 280 5.0 11.0 0.00 0.00 0.00 30 1015.1
20260503220019 58 274 3.0 11.0 0.00 0.00 0.00 31 1015.1
20260503214511 58 264 3.0 18.0 0.00 0.00 0.00 30 1015.0
20260503213011 58 293 2.0 10.0 0.00 0.00 0.00 31 1015.0
20260503211512 59 302 3.0 13.0 0.00 0.00 0.00 30 1014.8
20260503210011 60 279 2.0 11.0 0.00 0.00 0.00 29 1014.9
20260503204507 60 233 6.0 11.0 0.00 0.00 0.00 33 1015.1
20260503203005 60 114 4.0 11.0 0.00 0.00 0.00 32 1015.3
20260503201504 60 246 4.0 13.0 0.00 0.00 0.00 31 1015.7
20260503200002 59 198 3.0 12.0 0.00 0.00 0.00 34 1016.0
20260503194604 60 236 3.0 11.0 0.00 0.00 0.00 31 1016.2
20260503193057 59 233 1.0 6.0 0.00 0.00 0.00 32 1016.4
20260503191556 59 269 3.0 12.0 0.00 0.00 0.00 31 1016.6
20260503190054 59 269 5.0 14.0 0.00 0.00 0.00 35 1017.0
20260503184605 58 278 3.0 11.0 0.00 0.00 0.00 33 1017.1
20260503183057 57 41 2.0 10.0 0.00 0.00 0.00 33 1017.2
20260503181555 57 273 2.0 8.0 0.00 0.00 0.00 34 1017.3
20260503180049 57 273 1.0 16.0 0.00 0.00 0.00 35 1017.2
20260503174546 58 240 3.0 13.0 0.00 0.01 0.00 33 1017.5
20260503173045 58 300 3.0 11.0 0.00 0.01 0.00 36 1017.8
20260503171606 57 284 4.0 15.0 0.00 0.01 0.00 37 1018.0
20260503081602 33 290 0.0 0.0 0.00 0.04 0.00 74 1018.2
20260503080109 34 290 0.0 0.0 0.00 0.04 0.00 74 1018.1
20260503071609 35 290 0.0 0.0 0.00 0.04 0.00 74 1017.9
20260503054557 35 290 0.0 0.0 0.00 0.04 0.00 73 1018.0
20260503053042 34 290 0.0 0.0 0.00 0.04 0.00 73 1018.2
20260503051539 34 290 0.0 0.0 0.00 0.04 0.00 73 1018.2
20260503050044 34 290 0.0 2.0 0.00 0.04 0.00 72 1018.1
20260503044548 34 296 0.0 1.0 0.00 0.04 0.04 71 1018.1
20260503043044 35 296 0.0 0.0 0.00 0.04 0.04 71 1018.2
20260503041535 35 296 0.0 0.0 0.00 0.04 0.04 70 1018.2
20260503040038 35 296 0.0 0.0 0.00 0.04 0.04 69 1018.3
20260503034533 36 296 0.0 0.0 0.00 0.04 0.04 68 1018.3
20260503033033 37 296 0.0 0.0 0.00 0.04 0.04 67 1018.3
20260503031534 38 296 0.0 2.0 0.00 0.04 0.04 66 1018.2
20260503030032 39 265 0.0 1.0 0.00 0.04 0.04 65 1018.2
20260503024531 39 265 0.0 1.0 0.00 0.04 0.04 64 1018.2
20260503023031 40 270 0.0 3.0 0.00 0.04 0.04 64 1018.4